Weather History for Perryton, TX

Change the Weather History Date:

Tuesday, April 16, 2013

  Actual Average Record
Temperature  
Mean Temperature 46 °F -  
Max Temperature 55 °F 72 °F 87 °F (2004)
Min Temperature 39 °F 39 °F 25 °F (1974)
Degree Days  
Heating Degree Days 18    
Moisture  
Dew Point 33 °F    
Average Humidity 62    
Maximum Humidity 93    
Minimum Humidity 51    
Precipitation  
Precipitation 0.00 in - - ()
Sea Level Pressure  
Sea Level Pressure 29.93 in    
Wind  
Wind Speed 15 mph (ENE)    
Max Wind Speed 21 mph    
Max Gust Speed 30 mph    
Visibility 10 miles    
Events      
Averages and records for this station are not official NWS values.
T = Trace of Precipitation, MM = Missing Value Source: NWS Daily Summary

Daily Weather History Graph

Daily Weather History Graph

Search for Another Location

Airport:

Trip Planner

Search our weather history database for the weather conditions in past years. The results will help you decide how hot, cold, wet, or windy it might be!

Date:

Astronomy

Apr. 16, 2013 Rise Set
Actual Time 7:07 AM CDT 8:18 PM CDT
Civil Twilight 6:41 AM CDT 8:44 PM CDT
Nautical Twilight 6:09 AM CDT 9:16 PM CDT
Astronomical Twilight 5:36 AM CDT 9:49 PM CDT
Moon 11:32 AM CDT (4/16) 1:12 AM CDT (4/16)
Length of Visible Light 14h 03m
Length of Day
13h 10m
Waxing Crescent, 33% of the Moon is Illuminated
Apr 16
Waxing Crescent
Apr 18
First Quarter
Apr 25
Full
May 2
Last Quarter
May 9
New

Hourly Weather History & Observations

Time (CDT) Temp. Windchill Dew Point Humidity Pressure Visibility Wind Dir Wind Speed Gust Speed Precip Events Conditions
12:15 AM 42.8 °F 34.5 °F 31.3 °F 64% 29.82 in 10.0 mi East 18.4 mph - N/A   Clear
12:35 AM 42.3 °F 33.6 °F 30.6 °F 63% 29.82 in 10.0 mi East 19.6 mph - N/A   Clear
12:55 AM 41.5 °F 33.8 °F 30.2 °F 64% 29.84 in 10.0 mi ENE 15.0 mph - N/A   Clear
1:15 AM 41.0 °F 33.5 °F 29.8 °F 64% 29.85 in 10.0 mi ENE 13.8 mph - N/A   Clear
1:35 AM 40.5 °F 33.2 °F 29.5 °F 65% 29.85 in 10.0 mi ENE 12.7 mph - N/A   Clear
1:55 AM 40.1 °F 33.6 °F 29.3 °F 65% 29.85 in 10.0 mi ENE 10.4 mph - N/A   Clear
2:15 AM 39.6 °F 33.0 °F 29.3 °F 67% 29.87 in 10.0 mi NE 10.4 mph - N/A   Scattered Clouds
2:35 AM 40.6 °F 33.8 °F 29.3 °F 64% 29.87 in 10.0 mi NE 11.5 mph - N/A   Mostly Cloudy
2:55 AM 41.2 °F 35.0 °F 29.7 °F 64% 29.89 in 10.0 mi NNE 10.4 mph - N/A   Overcast
3:15 AM 41.7 °F 34.4 °F 29.3 °F 61% 29.89 in 10.0 mi NNE 13.8 mph 19.6 mph N/A   Overcast
3:35 AM 41.9 °F 33.7 °F 29.1 °F 61% 29.89 in 10.0 mi NNE 17.3 mph - N/A   Overcast
3:55 AM 41.9 °F 34.3 °F 28.9 °F 60% 29.90 in 10.0 mi NNE 15.0 mph - N/A   Overcast
4:15 AM 41.5 °F 33.2 °F 28.4 °F 60% 29.90 in 10.0 mi NNE 17.3 mph - N/A   Overcast
4:35 AM 41.4 °F 33.0 °F 27.3 °F 57% 29.91 in 10.0 mi NE 17.3 mph - N/A   Overcast
4:55 AM 41.2 °F 31.9 °F 26.2 °F 55% 29.91 in 10.0 mi NE 20.7 mph 25.3 mph N/A   Overcast
5:15 AM 41.2 °F 32.1 °F 25.7 °F 54% 29.91 in 10.0 mi NE 19.6 mph 24.2 mph N/A   Overcast
5:35 AM 41.2 °F 32.7 °F 25.5 °F 54% 29.92 in 10.0 mi NNE 17.3 mph 24.2 mph N/A   Overcast
5:55 AM 41.4 °F 33.6 °F 25.5 °F 53% 29.94 in 10.0 mi NNE 15.0 mph - N/A   Overcast
6:15 AM 41.2 °F 33.4 °F 25.5 °F 54% 29.94 in 10.0 mi NNE 15.0 mph 20.7 mph N/A   Overcast
6:35 AM 40.8 °F 32.9 °F 25.7 °F 55% 29.96 in 10.0 mi NNE 15.0 mph - N/A   Overcast
7:15 AM 39.6 °F 30.0 °F 28.2 °F 64% 29.97 in 10.0 mi NE 19.6 mph - N/A   Overcast
7:35 AM 39.2 °F 31.2 °F 28.2 °F 65% 29.98 in 10.0 mi NE 13.8 mph - N/A   Overcast
7:55 AM 39.2 °F 29.8 °F 28.4 °F 65% 29.98 in 10.0 mi NE 18.4 mph 21.9 mph N/A   Overcast
8:15 AM 39.7 °F 33.2 °F 28.4 °F 64% 30.00 in 10.0 mi NE 10.4 mph - N/A   Overcast
8:35 AM 40.1 °F 32.0 °F 27.7 °F 61% 30.01 in 10.0 mi NE 15.0 mph - N/A   Overcast
8:55 AM 40.5 °F 32.1 °F 27.5 °F 60% 30.02 in 10.0 mi NE 16.1 mph 20.7 mph N/A   Overcast
9:15 AM 41.0 °F 34.3 °F 27.7 °F 59% 30.02 in 10.0 mi ENE 11.5 mph - N/A   Overcast
9:35 AM 41.2 °F 34.1 °F 27.9 °F 59% 30.03 in 10.0 mi ENE 12.7 mph - N/A   Overcast
9:55 AM 41.9 °F 34.3 °F 28.2 °F 58% 30.01 in 10.0 mi ENE 15.0 mph - N/A   Overcast
10:15 AM 42.6 °F 35.6 °F 28.9 °F 58% 30.02 in 10.0 mi NE 13.8 mph 20.7 mph N/A   Overcast
10:35 AM 43.0 °F 36.4 °F 28.9 °F 58% 30.01 in 10.0 mi NE 12.7 mph - N/A   Overcast
10:55 AM 43.9 °F 37.2 °F 29.8 °F 58% 30.02 in 10.0 mi NE 13.8 mph 20.7 mph N/A   Overcast
11:15 AM 44.8 °F 38.3 °F 30.6 °F 57% 30.02 in 10.0 mi NE 13.8 mph 19.6 mph N/A   Overcast
11:35 AM 45.0 °F 38.9 °F 30.7 °F 57% 30.03 in 10.0 mi NE 12.7 mph 17.3 mph N/A   Overcast
11:55 AM 45.7 °F 39.1 °F 31.3 °F 57% 30.02 in 10.0 mi NE 15.0 mph 18.4 mph N/A   Overcast
12:15 PM 47.7 °F - 32.2 °F 55% 30.01 in 10.0 mi ENE 12.7 mph - N/A   Overcast
12:35 PM 48.0 °F - 32.2 °F 54% 30.02 in 10.0 mi ENE 11.5 mph - N/A   Overcast
12:55 PM 48.9 °F - 33.4 °F 55% 30.00 in 10.0 mi ENE 11.5 mph 18.4 mph N/A   Overcast
1:15 PM 50.4 °F - 33.6 °F 53% 29.99 in 10.0 mi ENE 12.7 mph 18.4 mph N/A   Overcast
1:35 PM 50.4 °F - 34.2 °F 54% 29.97 in 10.0 mi ENE 12.7 mph 18.4 mph N/A   Overcast
1:55 PM 50.5 °F - 34.7 °F 55% 29.96 in 10.0 mi ENE 13.8 mph 19.6 mph N/A   Overcast
2:15 PM 51.3 °F - 35.1 °F 54% 29.96 in 10.0 mi ENE 11.5 mph 29.9 mph N/A   Overcast
2:35 PM 51.8 °F - 35.4 °F 54% 29.96 in 10.0 mi East 11.5 mph 18.4 mph N/A   Overcast
2:55 PM 51.4 °F - 35.8 °F 55% 29.96 in 10.0 mi ENE 11.5 mph 19.6 mph N/A   Scattered Clouds
3:15 PM 52.7 °F - 35.8 °F 53% 29.94 in 10.0 mi ENE 12.7 mph - N/A   Scattered Clouds
3:35 PM 52.2 °F - 36.7 °F 56% 29.93 in 10.0 mi ENE 8.1 mph 17.3 mph N/A   Scattered Clouds
3:55 PM 53.4 °F - 37.2 °F 54% 29.93 in 10.0 mi East 9.2 mph 18.4 mph N/A   Clear
4:15 PM 53.6 °F - 36.9 °F 53% 29.93 in 10.0 mi ENE 11.5 mph - N/A   Clear
4:35 PM 54.3 °F - 36.9 °F 52% 29.92 in 10.0 mi East 11.5 mph 18.4 mph N/A   Clear
4:55 PM 54.9 °F - 36.9 °F 51% 29.91 in 10.0 mi East 10.4 mph 16.1 mph N/A   Clear
5:15 PM 54.9 °F - 37.0 °F 51% 29.91 in 10.0 mi East 10.4 mph 20.7 mph N/A   Clear
5:35 PM 53.8 °F - 36.9 °F 53% 29.90 in 10.0 mi East 12.7 mph 19.6 mph N/A   Clear
5:55 PM 54.1 °F - 36.9 °F 52% 29.89 in 10.0 mi East 13.8 mph 20.7 mph N/A   Clear
6:15 PM 54.3 °F - 37.4 °F 53% 29.88 in 10.0 mi East 16.1 mph 20.7 mph N/A   Clear
6:35 PM 53.4 °F - 37.6 °F 55% 29.89 in 10.0 mi East 12.7 mph - N/A   Clear
6:55 PM 52.9 °F - 37.6 °F 56% 29.90 in 10.0 mi East 13.8 mph 20.7 mph N/A   Clear
7:15 PM 51.6 °F - 37.6 °F 59% 29.89 in 10.0 mi East 12.7 mph - N/A   Clear
7:35 PM 50.2 °F - 37.6 °F 62% 29.90 in 10.0 mi East 15.0 mph - N/A   Clear
7:55 PM 48.2 °F - 37.4 °F 66% 29.91 in 10.0 mi East 13.8 mph 18.4 mph N/A   Clear
8:15 PM 46.6 °F - 37.2 °F 70% 29.90 in 10.0 mi East 13.8 mph - N/A   Clear
8:35 PM 45.1 °F 38.8 °F 37.4 °F 74% 29.89 in 10.0 mi East 13.8 mph - N/A   Clear
8:55 PM 44.1 °F 38.6 °F 37.2 °F 77% 29.90 in 10.0 mi ENE 10.4 mph - N/A   Clear
9:15 PM 43.7 °F 37.7 °F 37.4 °F 78% 29.91 in 10.0 mi ENE 11.5 mph - N/A   Clear
9:35 PM 43.0 °F 36.4 °F 37.4 °F 81% 29.91 in 10.0 mi East 12.7 mph - N/A   Clear
9:55 PM 42.8 °F 36.6 °F 37.2 °F 81% 29.90 in 10.0 mi East 11.5 mph - N/A   Clear
10:15 PM 43.9 °F 35.9 °F 38.3 °F 81% 29.90 in 10.0 mi East 18.4 mph 23.0 mph N/A   Mostly Cloudy
10:35 PM 44.4 °F 36.9 °F 38.8 °F 81% 29.91 in 10.0 mi ENE 17.3 mph - N/A   Overcast
10:55 PM 44.1 °F 36.2 °F 39.9 °F 85% 29.90 in 7.0 mi East 18.4 mph - N/A   Overcast
11:15 PM 44.1 °F 36.5 °F 40.1 °F 86% 29.88 in 7.0 mi East 17.3 mph - N/A   Overcast
11:35 PM 43.9 °F 37.2 °F 40.6 °F 88% 29.88 in 5.0 mi East 13.8 mph 20.7 mph N/A   Overcast
11:55 PM 43.3 °F 35.8 °F 41.5 °F 93% 29.88 in 2.5 mi ENE 16.1 mph 19.6 mph N/A   Overcast